Change the Weather History Date:

Sunday, March 10, 2013

  Actual Average Record
Temperature  
Mean Temperature 62 °F -  
Max Temperature 71 °F 74 °F 84 °F (1997)
Min Temperature 50 °F 51 °F 42 °F (2007)
Degree Days  
Heating Degree Days 4    
Growing Degree Days 12 (Base 50)    
Moisture  
Dew Point 49 °F    
Average Humidity 70    
Maximum Humidity 100    
Minimum Humidity 30    
Precipitation  
Precipitation 0.00 in 0.05 in - ()
Sea Level Pressure  
Sea Level Pressure 30.08 in    
Wind  
Wind Speed 6 mph ()    
Max Wind Speed 15 mph    
Max Gust Speed -    
Visibility 6.2 miles    
Events      
Averages and records for this station are not official NWS values.
T = Trace of Precipitation, MM = Missing Value Source: Averaged Metar Reports

Daily Weather History Graph

Daily Weather History Graph

Search for Another Location

Airport or City:

Trip Planner

Search our weather history database for the weather conditions in past years. The results will help you decide how hot, cold, wet, or windy it might be!

Date:

Astronomy

Mar. 10, 2013 Rise Set
Actual Time 6:48 AM WET 6:36 PM WET
Civil Twilight 6:24 AM WET 7:01 PM WET
Nautical Twilight 5:55 AM WET 7:29 PM WET
Astronomical Twilight 5:27 AM WET 7:57 PM WET
Moon 5:37 AM WET (3/10) 5:31 PM WET (3/10)
Length of Visible Light 12h 36m
Length of Day
11h 48m
Waning Crescent, 2% of the Moon is Illuminated
Mar 10
Waning Crescent
Mar 11
New
Mar 19
First Quarter
Mar 27
Full
Apr 3
Last Quarter

Hourly Weather History & Observations

Time (WET) Temp. Dew Point Humidity Pressure Visibility Wind Dir Wind Speed Gust Speed Precip Events Conditions
12:00 AM 57 °F 53 °F 83% 30.08 in 6 mi WSW 4.6 mph - -   Mostly Cloudy
12:00 AM 57.2 °F 53.6 °F 88% 30.06 in 6.2 mi SW 5.8 mph - N/A   Mostly Cloudy
12:30 AM 55.4 °F 53.6 °F 94% 30.09 in 6.2 mi West 4.6 mph - N/A   Mostly Cloudy
1:00 AM 55.4 °F 53.6 °F 94% 30.09 in 6.2 mi West 5.8 mph - N/A   Mostly Cloudy
1:30 AM 55.4 °F 53.6 °F 94% 30.09 in 6.2 mi WSW 3.5 mph - N/A   Mostly Cloudy
2:00 AM 53.6 °F 53.6 °F 100% 30.06 in 6.2 mi Calm Calm - N/A   Mostly Cloudy
2:30 AM 53.6 °F 51.8 °F 94% 30.06 in 6.2 mi WSW 3.5 mph - N/A   Mostly Cloudy
3:00 AM 53 °F 53 °F 99% 30.07 in 6 mi WSW 3.5 mph - -   Mostly Cloudy
3:00 AM 53.6 °F 53.6 °F 100% 30.06 in 6.2 mi West 3.5 mph - N/A   Mostly Cloudy
3:30 AM 53.6 °F 51.8 °F 94% 30.06 in 6.2 mi WSW 5.8 mph - N/A   Mostly Cloudy
4:00 AM 53.6 °F 51.8 °F 94% 30.06 in 6.2 mi West 9.2 mph - N/A   Mostly Cloudy
4:30 AM 53.6 °F 51.8 °F 94% 30.06 in 6.2 mi SW 8.1 mph - N/A   Mostly Cloudy
5:00 AM 55.4 °F 51.8 °F 88% 30.06 in 6.2 mi SW 4.6 mph - N/A   Mostly Cloudy
5:30 AM 55.4 °F 51.8 °F 88% 30.04 in 6.2 mi SW 4.6 mph - N/A   Mostly Cloudy
6:00 AM 55 °F 52 °F 86% 30.06 in 6 mi SW 4.6 mph - -   Mostly Cloudy
6:00 AM 55.4 °F 51.8 °F 88% 30.06 in 6.2 mi SW 4.6 mph - N/A   Mostly Cloudy
6:30 AM 53.6 °F 50.0 °F 88% 30.06 in 6.2 mi WSW 4.6 mph - N/A   Mostly Cloudy
7:00 AM 53.6 °F 50.0 °F 88% 30.06 in 6.2 mi WSW 3.5 mph - N/A   Mostly Cloudy
7:30 AM 53.6 °F 51.8 °F 94% 30.06 in 6.2 mi Variable 1.2 mph - N/A   Mostly Cloudy
8:00 AM 55.4 °F 51.8 °F 88% 30.06 in 6.2 mi SW 4.6 mph - N/A   Mostly Cloudy
8:30 AM 59.0 °F 53.6 °F 82% 30.09 in 6.2 mi West 4.6 mph - N/A   Mostly Cloudy
9:00 AM 60 °F 54 °F 75% 30.08 in 6 mi West 8.1 mph - -   Partly Cloudy
9:00 AM 59.0 °F 53.6 °F 82% 30.09 in 6.2 mi West 6.9 mph - N/A   Mostly Cloudy
9:30 AM 62.6 °F 53.6 °F 72% 30.09 in 6.2 mi West 8.1 mph - N/A   Mostly Cloudy
10:00 AM 64.4 °F 53.6 °F 68% 30.12 in 6.2 mi West 9.2 mph - N/A   Scattered Clouds
10:30 AM 60.8 °F 51.8 °F 72% 30.12 in 6.2 mi West 9.2 mph - N/A   Scattered Clouds
11:00 AM 62.6 °F 51.8 °F 68% 30.12 in 6.2 mi WNW 6.9 mph - N/A   Mostly Cloudy
11:30 AM 66.2 °F 48.2 °F 52% 30.09 in 6.2 mi WSW 8.1 mph - N/A   Mostly Cloudy
12:00 PM 65 °F 48 °F 44% 30.06 in 6 mi West 8.1 mph - -   Partly Cloudy
12:00 PM 64.4 °F 48.2 °F 56% 30.09 in 6.2 mi West 6.9 mph - N/A   Mostly Cloudy
12:30 PM 66.2 °F 50.0 °F 56% 30.09 in 6.2 mi WSW 9.2 mph - N/A   Mostly Cloudy
1:00 PM 68.0 °F 46.4 °F 46% 30.06 in 6.2 mi West 9.2 mph - N/A   Mostly Cloudy
1:30 PM 68.0 °F 44.6 °F 43% 30.06 in 6.2 mi West 8.1 mph - N/A   Mostly Cloudy
2:00 PM 69.8 °F 46.4 °F 43% 30.06 in 6.2 mi West 9.2 mph - N/A   Mostly Cloudy
2:30 PM 66.2 °F 46.4 °F 49% 30.04 in 6.2 mi West 8.1 mph - N/A   Mostly Cloudy
3:00 PM 69 °F 45 °F 30% 30.00 in 6 mi WNW 8.1 mph - -   Mostly Cloudy
3:00 PM 68.0 °F 44.6 °F 43% 30.04 in 6.2 mi NW 8.1 mph - N/A   Mostly Cloudy
3:30 PM 71.6 °F 44.6 °F 38% 30.04 in 6.2 mi Variable 8.1 mph - N/A   Mostly Cloudy
4:00 PM 69.8 °F 42.8 °F 38% 30.04 in 6.2 mi West 12.7 mph - N/A   Mostly Cloudy
4:30 PM 69.8 °F 41.0 °F 35% 30.04 in 6.2 mi WNW 10.4 mph - N/A   Mostly Cloudy
5:00 PM 69.8 °F 42.8 °F 38% 30.04 in 6.2 mi West 12.7 mph - N/A   Mostly Cloudy
5:30 PM 68.0 °F 44.6 °F 43% 30.04 in 6.2 mi West 10.4 mph - N/A   Mostly Cloudy
6:00 PM 66 °F 48 °F 42% 30.04 in 6 mi NW 15.0 mph - -   Partly Cloudy
6:00 PM 66.2 °F 48.2 °F 52% 30.06 in 6.2 mi NW 15.0 mph - N/A   Scattered Clouds
6:30 PM 64.4 °F 46.4 °F 52% 30.06 in 6.2 mi WNW 13.8 mph - N/A   Scattered Clouds
7:00 PM 60.8 °F 48.2 °F 63% 30.09 in 6.2 mi WNW 11.5 mph - N/A   Scattered Clouds
7:30 PM 60.8 °F 46.4 °F 59% 30.12 in 6.2 mi WNW 11.5 mph - N/A   Scattered Clouds
8:00 PM 59.0 °F 42.8 °F 55% 30.12 in 6.2 mi WNW 11.5 mph - N/A   Scattered Clouds
8:30 PM 57.2 °F 44.6 °F 63% 30.12 in 6.2 mi WNW 8.1 mph - N/A   Partly Cloudy
9:00 PM 55 °F 45 °F 60% 30.15 in 6 mi West 6.9 mph - -   Scattered Clouds
9:00 PM 55.4 °F 44.6 °F 67% 30.15 in 6.2 mi West 8.1 mph - N/A   Partly Cloudy
9:30 PM 53.6 °F 44.6 °F 72% 30.15 in 6.2 mi West 5.8 mph - N/A   Scattered Clouds
10:00 PM 53.6 °F 46.4 °F 77% 30.15 in 6.2 mi SW 4.6 mph - N/A   Scattered Clouds
10:30 PM 53.6 °F 46.4 °F 77% 30.15 in 6.2 mi SW 5.8 mph - N/A   Scattered Clouds
11:00 PM 53.6 °F 46.4 °F 77% 30.15 in 6.2 mi SW 6.9 mph - N/A   Scattered Clouds
11:30 PM 50.0 °F 46.4 °F 87% 30.15 in 6.2 mi WSW 4.6 mph - N/A   Partly Cloudy